Zurück zum Katalog

STARLINK-36429

AktivKommunikationVLEO
NORAD 67356·PAYLOAD·🇺🇸 United States

Gestartet Jan 9, 2026 von Cape Canaveral Space Force Station

Loading…

Nächste Überflüge (nächste 24 Stunden)

TLE

AktuellSource: CelesTrak SupGP

Epoche: Sep 14, 2026, 22:40 UTC

1 67356C 26003Y   26257.94493056  .00028940  00000+0  10482-2 0  2576
2 67356  43.0024 238.5578 0001368 265.7604 125.9112 15.27564091    10

Verfolge STARLINK-36429 in Echtzeit mit AllMySat

Download on the App Store